Voltar ao catálogo

COSMOS 1331

AtivoMilitarLEO
NORAD 13027·PAYLOAD·🇷🇺 Russia

Lançado Jan 7, 1982 de Plesetsk Cosmodrome

Loading…

Próximas Passagens (próximas 24 horas)

TLE

AtualizadoSource: Space-Track

Época: Sep 14, 2026, 05:59 UTC

1 13027U 82001A   26257.24942086  .00000097  00000-0  40759-4 0  9996
2 13027  74.0499 352.0393 0024774 275.3144  84.5183 14.37750289340375

Acompanhe COSMOS 1331 em tempo real com AllMySat

Download on the App Store